Regional Weather Roundup
Issued by NWS

Home | Current Version | Previous Version | Text Only | Print | Product List | Glossary On
Versions: 1 2 3 4 5 6 7 8 9 10 11 12 13 14 15 16 17 18 19 20 21 22 23 24 25 26 27 28 29 30 31 32 33 34 35 36 37 38 39 40 41 42 43 44 45 46 47 48 49 50
000
ASUS42 KTBW 221117
RWRFL
FLORIDA REGIONAL WEATHER ROUNDUP
NATIONAL WEATHER SERVICE TAMPA BAY RUSKIN FL
700 AM EDT FRI MAY 22 2015

NOTE: "FAIR" INDICATES FEW OR NO CLOUDS BELOW 12,000 FEET WITH NO
SIGNIFICANT WEATHER AND/OR OBSTRUCTIONS TO VISIBILITY.


FLZ001>010-012>015-112-114-115-221200-
PANHANDLE FLORIDA

CITY           SKY/WX    TMP DP  RH WIND       PRES   REMARKS
PENSACOLA      MOCLDY    65  59  81 N12G18    30.12R
PENSACOLA NAS  MOCLDY    65  61  87 N10       30.12R
MILTON NAS     MOCLDY    61  56  83 N12       30.13R
CRESTVIEW      CLEAR     63  57  81 N7        30.14R
DUKE FIELD     MOCLDY    64  58  82 N14       30.12R HAZE
VALPARAISO     MOCLDY    66  59  80 N9        30.11R
MARY ESTHER    PTCLDY    65  59  81 N8        30.10R
TRI COUNTY     FAIR      63  57  81 N6        30.13R
PANAMA CITY    FAIR      67  62  84 N8        30.09R
TYNDALL AFB    CLOUDY    70  64  81 N8        30.08R
APALACHICOLA   PTCLDY    73  66  78 N5        30.08R

STATION/POSITION SKY/WX   TEMP    WIND        PRES    WAVE   SWELL
                          AIR SEA DIR/SP/G            HT/PER HT/PER
                          (F)     (DEG/KT/KT) (MB)    (FT/S) (FT/S)
30.1N   87.6W              70 80   20/ 16/ 19 1018.4R   2/ 3
29.2N   88.2W              78 81   60/ 16/ 19 1018.4R   2/ 4
28.8N   86.0W              80 81  240/  4/  6 1017.1    1/ 4
PANAMA CITY BEAC           69 78  360/  7/ 10 1018.2R
CAPE SAN BLAS    NOT AVBL
TOWER C                    75      20/ 13/ 13 1018.2R
28.5N   84.5W              80 80   40/ 12/ 12 1017.3R   1/ 4

$$
FLZ011-016>038-118-127-128-134-139-239-221200-
NORTH FLORIDA

CITY           SKY/WX    TMP DP  RH WIND       PRES   REMARKS
MARIANNA       PTCLDY    65  59  81 N7        30.11R
TALLAHASSEE    MOCLDY    69  61  75 N9        30.08R
PERRY          PTCLDY    68  64  85 N8        30.08R
CROSS CITY       N/A     66  63  90 N3        30.05R
LAKE CITY      FAIR      64  63  94 N5        30.06R
GAINESVILLE    CLEAR     69  64  84 CALM      30.05R
MAYPORT NAS    PTCLDY    70  64  81 CALM      30.04R
JACKSONVILLE   PTCLDY    65  63  93 NW7       30.05R
JAX NAS        PTCLDY    75  62  64 NW9       30.05R
JAX CRAIG      CLEAR     72  62  71 N10       30.04R
JAX CECIL      CLEAR     66  63  88 NW5       30.05R
FERNANDINA BEA FAIR      72  66  83 NW5       30.03R
ST AUGUSTINE   CLEAR     71  65  81 NW7       30.05R

STATION/POSITION SKY/WX   TEMP    WIND        PRES    WAVE   SWELL
                          AIR SEA DIR/SP/G            HT/PER HT/PER
                          (F)     (DEG/KT/KT) (MB)    (FT/S) (FT/S)
SHELL POINT                71     350/  4/  6   N/A
KEATON BEACH               69      20/  3/  4 1018.0R
CEDAR KEY                  74      30/  6/  7 1018.1R
FERNANDINA                 71 81  330/  4/  5 1016.0R
30.7N   81.3W                 77                N/A     2/ 3
MAYPORT                    72 78  320/  5/  8 1016.7R
31.4N   80.9W              73 77  350/ 12/ 16 1017.1R   2/ 4
ST AUGUSTINE               72 72  330/  7/  9 1017.9R

$$
FLZ040-043>046-052-053-057-058-063-144-221200-
INTERIOR CENTRAL FLORIDA

CITY           SKY/WX    TMP DP  RH WIND       PRES   REMARKS
OCALA          CLEAR     70  64  83 CALM      30.05R
THE VILLAGES     N/A     73  72  94 N5        29.96R
LEESBURG       CLEAR     75  70  84 N8        30.06R
SANFORD        CLOUDY    76  72  87 N6        30.04R
ORLANDO EXEC   CLEAR     77  73  87 N6        30.05R
ORLANDO INTL   PTCLDY    75  73  93 CALM      30.05R
KISSIMMEE      CLEAR     73  72  94 CALM      30.05
WINTER HAVEN   MOCLDY    77  74  90 CALM      30.07R
LAKELAND       PTCLDY    72  70  94 CALM      30.05R FOG
BARTOW         FAIR      72 N/A N/A CALM      30.06R HAZE
OKEECHOBEE     CLEAR     72  70  94 CALM      30.05R

$$
FLZ041-047-054-059-064-141-147-221200-
EAST CENTRAL FLORIDA

CITY           SKY/WX    TMP DP  RH WIND       PRES   REMARKS
ORMOND BEACH   CLEAR     72  68  88 CALM        N/A
DAYTONA BEACH  PTCLDY    75  69  81 N5        30.04R
DELAND           N/A     73  70  88 N3        30.06R
NEW SMYRNA BEA PTCLDY    73  72  94 NW6       30.05
JFK SPACE CTR  CLEAR     74  72  93 SW2       30.03R
TITUSVILLE     CLEAR     72  72 100 VRB3      30.04  HAZE
CAPE CANAVERAL CLEAR     76  74  91 W6        30.02R
PATRICK AFB    CLEAR     77  74  92 W7        30.03R
MELBOURNE      PTCLDY    73  72  96 W5        30.04R
VERO BEACH     CLEAR     73  70  90 W5        30.04R
FT PIERCE      CLEAR     72  70  93 NW5       30.04R

STATION/POSITION SKY/WX   TEMP    WIND        PRES    WAVE   SWELL
                          AIR SEA DIR/SP/G            HT/PER HT/PER
                          (F)     (DEG/KT/KT) (MB)    (FT/S) (FT/S)
28.5N   80.2W              78 80  300/ 10/ 10 1016.7R
28.9N   78.5W              80 79  230/ 10/ 12 1016.4R
TRIDENT PIER               77 83  240/  4/  6 1016.9R
28.4N   80.5W                 81                N/A     1/ 4
27.5N   80.2W                 80                N/A     1/ 8

$$
FLZ050-056-061-142-242-148-248-149-249-151-251-155-255-
160-260-221200-
WEST CENTRAL FLORIDA

CITY           SKY/WX    TMP DP  RH WIND       PRES   REMARKS
CRYSTAL RIVER  FAIR      70  66  88 CALM      30.06R
INVERNESS      FAIR      70  70 100 CALM      30.06R
BROOKSVILLE    CLEAR     73  69  87 NE3       30.06R
CLEARWATER     PTCLDY    77  74  90 NW8       30.04R
TAMPA INTL     PTCLDY    78  72  81 N3        30.05R
TAMPA EXEC     CLEAR     73  72  94 CALM      30.04S FOG
PLANT CITY     CLEAR     73  73 100 CALM      30.07R FOG
MACDILL AFB    PTCLDY    78  76  92 N3        30.04R
PETER O KNIGHT CLEAR     79  75  89 CALM      30.04S
ST PETERSBURG  CLEAR     79  73  82 CALM      30.03R
SARASOTA       CLEAR     76  73  91 CALM      30.04R
VENICE         FAIR      77  73  88 NE5       30.06R

STATION/POSITION SKY/WX   TEMP    WIND        PRES    WAVE   SWELL
                          AIR SEA DIR/SP/G            HT/PER HT/PER
                          (F)     (DEG/KT/KT) (MB)    (FT/S) (FT/S)
CEDAR KEY                  74      30/  6/  7 1018.1R
28.5N   84.5W              80 80   40/ 12/ 12 1017.3R   1/ 4
27.3N   84.2W                 81                N/A     1/ 4
CLEARWATER BEACH           81 85  320/ 12/ 14 1016.7R
MIDDLE TAMPA BAY           80     340/  6/  8 1017.1R
VENICE                     80 84   10/  4/  5 1017.2R

$$
FLZ066-069-070-075>078-162-262-165-265-221200-
SOUTHWEST FLORIDA AND KEYS

CITY           SKY/WX    TMP DP  RH WIND       PRES   REMARKS
PUNTA GORDA    CLEAR     70  70 100 CALM      30.06R FOG
FT MYERS       CLEAR     76  73  91 CALM      30.04R
SOUTHWEST INTL CLEAR     73  71  93 E5        30.05R
NAPLES         CLEAR     78  74  87 N3        30.05R
MARCO ISLAND   SUNNY     75  70  83 CALM      30.05R
IMMOKALEE      SUNNY    N/A N/A N/A CALM      30.06R
MARATHON       PTCLDY    80  74  81 CALM      30.05R
KEY WEST NAS   PTCLDY    79  72  79 NE3       30.05R
KEY WEST INTL  CLEAR     79  73  82 N3        30.05R

STATION/POSITION SKY/WX   TEMP    WIND        PRES    WAVE   SWELL
                          AIR SEA DIR/SP/G            HT/PER HT/PER
                          (F)     (DEG/KT/KT) (MB)    (FT/S) (FT/S)
VENICE                     80 84   10/  4/  5 1017.2R
NAPLES                     79 84   30/  4/  5 1016.8R
26.0N   85.6W              80 82   CALM  /  2 1017.6R   1/ 8
DRY TORTUGAS               80      80/  2/  3 1017.1R
NW FL BAY                  83      40/  2/  4 1017.3
SAND KEY                   81      20/  6/  8 1017.4R
SOMBRERO KEY               81      CALM  /  1 1018.4R
LONG KEY                   82 86   40/  4/  5 1018.5R
MOLASSES REEF              80 82  350/  5/  6 1017.7R

$$
FLZ067-068-071>074-168-172>174-221200-
SOUTHEAST FLORIDA

CITY           SKY/WX    TMP DP  RH WIND       PRES   REMARKS
W PALM BEACH   PTCLDY    75  72  90 CALM      30.05R
FT LAUDER-EXEC CLEAR     75  72  90 W5        30.04R FOG
FT LAUDERDALE  PTCLDY    77  73  87 W6        30.04R
POMPANO BEACH  CLEAR     76  72  87 W3        30.04R FOG
PEMBROKE PINES CLEAR     76  72  87 W3        30.06R
OPA LOCKA      CLEAR     76  72  87 W5        30.06R HAZE
MIAMI          PTCLDY    77  72  84 W5        30.06R
WEST KENDALL   MOCLDY    73  70  90 CALM      30.06R
HOMESTEAD      CLEAR     72  70  93 SW3       30.05R

STATION/POSITION SKY/WX   TEMP    WIND        PRES    WAVE   SWELL
                          AIR SEA DIR/SP/G            HT/PER HT/PER
                          (F)     (DEG/KT/KT) (MB)    (FT/S) (FT/S)
PORT EVERGLADES            77     280/  6/  8 1017.2R
VIRGINIA KEY               78 84  260/  5/  6 1016.6R
LAKE WORTH                 77 82  250/  3/  5 1016.4R
SETTLEMENT POINT           80     210/ 10/ 11 1018.1R

$$




USA.gov is the U.S. government's official web portal to all federal, state and local government web resources and services.